Home   Weather   Perth   Past weeks

Flag for United Kingdom Past Weather in Perth, Scotland, United Kingdom — Yesterday and Last 2 Weeks

Now
52 °F

Clear.


Feels Like: 52 °F
Forecast: 51 / 59 °F
Wind: 2 mph from Northwest

Location: Leuchars

Current Time: Aug 18, 2017 at 12:39:52 am

Latest Report: Aug 17, 2017 at 11:50 pm


Visibility: 10 mi

Pressure: 29.59 "Hg

Humidity: 88%

Dew Point: 48 °F

Location of PerthLocation

Past Weather in Perth — Graph

°F

Perth Temperature Yesterday

Maximum temperature yesterday: 72 °F (at 2:50 pm)
Minimum temperature yesterday: 54 °F (at 6:50 am)
Average temperature yesterday: 62 °F

High & Low Weather Summary for the Past Weeks

 TemperatureHumidityPressure
High72 °F (Aug 17, 2:50 pm)100% (Aug 3, 12:50 am)30.21 "Hg (Aug 3, 12:50 am)
Low46 °F (Aug 6, 5:50 am)49% (Aug 9, 2:50 pm)29.36 "Hg (Aug 3, 6:50 am)
Average58 °F81%29.86 "Hg
* Reported Aug 2 10:50 pm — Aug 17 10:50 pm, Perth. Weather by CustomWeather, © 2017

Note: Actual official high and low records may vary slightly from our data, if they occured in-between our weather recording intervals... More about our weather records

Advertising

Perth Weather History for the Previous 24 Hours

Scroll right to see more
 ConditionsComfort  
Time TempWeatherWind HumidityBarometerVisibility
10:50 pm
Thu, Aug 17
55 °FPassing clouds.6 mph88%29.59 "HgN/A
9:50 pm55 °FPassing clouds.7 mph88%29.62 "HgN/A
8:50 pm59 °FClear.10 mph82%29.62 "Hg10 mi
7:50 pm63 °FScattered clouds.10 mph73%29.62 "HgN/A
6:50 pm68 °FScattered clouds.14 mph60%29.62 "HgN/A
5:50 pm64 °FBroken clouds.12 mph73%29.62 "HgN/A
4:50 pm68 °FLight rain. Partly sunny.12 mph64%29.62 "HgN/A
3:50 pm68 °FPartly sunny.20 mph60%29.62 "HgN/A
2:50 pm72 °FPartly sunny.20 mph53%29.62 "HgN/A
1:50 pm70 °FPartly sunny.18 mph60%29.62 "HgN/A
12:50 pm68 °FScattered clouds.18 mph60%29.62 "HgN/A
11:50 am66 °FScattered clouds.20 mph64%29.62 "HgN/A
10:50 am64 °FPassing clouds.12 mph68%29.62 "HgN/A
9:50 am61 °FPassing clouds.14 mph77%29.62 "HgN/A
8:50 am59 °FPassing clouds.12 mph88%29.65 "HgN/A
7:50 am57 °FPassing clouds.10 mph88%29.62 "HgN/A
6:50 am54 °FSunny.9 mph94%29.62 "Hg10 mi
5:50 am55 °FSunny.7 mph94%29.62 "Hg10 mi
4:50 am57 °FClear.8 mph100%29.59 "Hg10 mi
3:50 am61 °FLight rain. Passing clouds.14 mph94%29.59 "HgN/A
2:50 am59 °FSprinkles. Passing clouds.7 mph100%29.62 "HgN/A
1:50 am59 °FPartly cloudy.12 mph100%29.62 "HgN/A
12:50 am61 °FPassing clouds.6 mph88%29.65 "HgN/A
Weather by CustomWeather, © 2017

See weather overviewHow to use our weather pages